Location: Newark
(43.0000°N, 1.6781°W)
Time: 10:13:21
(UTC+00:00)

LilacSat-2 - Visible Passes

Search period start: 30 November 2022 00:00
Search period end: 10 December 2022 00:00
Orbit: 505 x 526 km, 97.5° (Epoch: 29 November)

Date Brightness Start Highest point End Pass type
(mag) Time Alt. Az. Time Alt. Az. Time Alt. Az.
30 Nov ? 05:00:03 10° ENE 05:01:43 13° E 05:03:23 10° ESE visible
30 Nov ? 06:32:27 10° N 06:36:00 44° WNW 06:39:32 10° SW visible
30 Nov ? 17:12:52 10° SSE 17:16:39 88° WSW 17:20:28 10° NNW visible
01 Dec ? 06:17:23 10° N 06:21:05 69° WNW 06:24:45 10° SSW visible
01 Dec ? 16:57:59 10° SSE 17:01:43 60° ENE 17:05:26 10° N visible
02 Dec ? 06:02:24 10° NNE 06:06:07 76° ESE 06:09:48 10° S visible
02 Dec ? 18:18:48 10° SW 18:21:00 15° W 18:23:11 10° WNW visible
03 Dec ? 05:47:30 10° NNE 05:51:07 48° E 05:54:42 10° S visible
03 Dec ? 18:02:56 10° SSW 18:05:54 22° W 18:08:53 10° NW visible
04 Dec ? 05:32:44 10° NNE 05:36:04 31° E 05:39:23 10° SSE visible
04 Dec ? 17:47:25 10° SSW 17:50:50 32° W 17:54:16 10° NNW visible
05 Dec ? 05:18:09 10° NE 05:21:00 21° E 05:23:50 10° SE visible
05 Dec ? 06:51:53 10° NNW 06:55:01 26° WNW 06:58:08 10° SW visible
05 Dec ? 17:32:08 10° S 17:35:48 49° W 17:39:28 10° NNW visible
06 Dec ? 05:03:52 10° ENE 05:05:53 14° E 05:07:53 10° SE visible
06 Dec ? 06:36:37 10° N 06:40:07 39° WNW 06:43:34 10° SW visible
06 Dec ? 17:17:02 10° S 17:20:47 78° W 17:24:33 10° NNW visible
07 Dec ? 06:21:29 10° N 06:25:10 61° WNW 06:28:48 10° SSW visible
07 Dec ? 17:02:04 10° SSE 17:05:48 67° ENE 17:09:31 10° N visible
08 Dec ? 06:06:27 10° NNE 06:10:10 85° E 06:13:52 10° SSW visible
08 Dec ? 18:23:14 10° WSW 18:25:05 13° W 18:26:56 10° WNW visible
09 Dec ? 05:51:29 10° NNE 05:55:09 54° E 05:58:46 10° S visible
09 Dec ? 18:07:10 10° SW 18:09:57 19° W 18:12:44 10° NW visible
